Time,TemperatureF,DewpointF,PressureIn,WindDirection,WindDirectionDegrees,WindSpeedMPH,WindSpeedGustMPH,Humidity,HourlyPrecipIn,Conditions,Clouds,dailyrainin,SolarRadiationWatts/m^2,SoftwareType,DateUTC
2013-04-18 00:02:00,34.0,18.0,-100.00,ESE,106,4.0,5.0,52,-99.99,,,0.00,0.000000,,2013-04-18 06:02:00,
2013-04-18 00:12:00,34.0,18.0,-100.00,ESE,106,4.0,5.0,52,-99.99,,,0.00,0.000000,,2013-04-18 06:12:00,
2013-04-18 00:42:00,31.0,19.0,-100.00,ENE,63,4.0,5.0,58,-99.99,,,0.00,0.000000,,2013-04-18 06:42:00,
2013-04-18 00:52:00,31.0,19.0,-100.00,ENE,63,4.0,5.0,58,-99.99,,,0.00,0.000000,,2013-04-18 06:52:00,
2013-04-18 01:02:00,31.0,19.0,-100.00,ENE,63,4.0,5.0,58,-99.99,,,0.00,0.000000,,2013-04-18 07:02:00,
2013-04-18 01:12:00,31.0,19.0,-100.00,ENE,63,4.0,5.0,58,-99.99,,,0.00,0.000000,,2013-04-18 07:12:00,
2013-04-18 01:42:00,31.0,20.0,-100.00,East,96,3.0,5.0,63,-99.99,,,-99.99,0.000000,,2013-04-18 07:42:00,
2013-04-18 01:52:00,31.0,20.0,-100.00,East,96,3.0,5.0,63,-99.99,,,-99.99,0.000000,,2013-04-18 07:52:00,
2013-04-18 02:02:00,31.0,20.0,-100.00,East,96,3.0,5.0,63,-99.99,,,-99.99,0.000000,,2013-04-18 08:02:00,
2013-04-18 02:12:00,31.0,20.0,-100.00,East,96,3.0,5.0,63,-99.99,,,-99.99,0.000000,,2013-04-18 08:12:00,
2013-04-18 02:42:00,32.0,21.0,-100.00,East,94,5.0,7.0,62,-99.99,,,0.00,0.000000,,2013-04-18 08:42:00,
2013-04-18 02:52:00,32.0,21.0,-100.00,East,94,5.0,7.0,62,-99.99,,,0.00,0.000000,,2013-04-18 08:52:00,
2013-04-18 03:02:00,32.0,21.0,-100.00,East,94,5.0,7.0,62,-99.99,,,0.00,0.000000,,2013-04-18 09:02:00,
2013-04-18 03:11:00,32.0,21.0,-100.00,East,94,5.0,7.0,62,-99.99,,,0.00,0.000000,,2013-04-18 09:11:00,
2013-04-18 03:42:00,30.0,20.0,-100.00,ENE,74,3.0,4.0,65,-99.99,,,0.00,0.000000,,2013-04-18 09:42:00,
2013-04-18 03:53:00,30.0,20.0,-100.00,ENE,74,3.0,4.0,65,-99.99,,,0.00,0.000000,,2013-04-18 09:53:00,
2013-04-18 04:03:00,30.0,20.0,-100.00,ENE,74,3.0,4.0,65,-99.99,,,0.00,0.000000,,2013-04-18 10:03:00,
2013-04-18 04:12:00,30.0,20.0,-100.00,ENE,74,3.0,4.0,65,-99.99,,,0.00,0.000000,,2013-04-18 10:12:00,
2013-04-18 04:42:00,29.0,20.0,-100.00,East,82,5.0,6.0,69,-99.99,,,0.00,0.000000,,2013-04-18 10:42:00,
2013-04-18 04:52:00,29.0,20.0,-100.00,East,82,5.0,6.0,69,-99.99,,,0.00,0.000000,,2013-04-18 10:52:00,
2013-04-18 05:02:00,29.0,20.0,-100.00,East,82,5.0,6.0,69,-99.99,,,0.00,0.000000,,2013-04-18 11:02:00,
2013-04-18 05:12:00,29.0,20.0,-100.00,East,82,5.0,6.0,69,-99.99,,,0.00,0.000000,,2013-04-18 11:12:00,
2013-04-18 05:42:00,28.0,20.0,-100.00,NNE,31,2.0,4.0,71,-99.99,,,0.00,0.000000,,2013-04-18 11:42:00,
2013-04-18 05:52:00,28.0,20.0,-100.00,NNE,31,2.0,4.0,71,-99.99,,,0.00,0.000000,,2013-04-18 11:52:00,
2013-04-18 06:02:00,28.0,20.0,-100.00,NNE,31,2.0,4.0,71,-99.99,,,0.00,0.000000,,2013-04-18 12:02:00,
2013-04-18 06:12:00,28.0,20.0,-100.00,NNE,31,2.0,4.0,71,-99.99,,,0.00,0.000000,,2013-04-18 12:12:00,
2013-04-18 06:42:00,29.0,20.0,-100.00,East,92,4.0,5.0,67,-99.99,,,0.00,0.120000,,2013-04-18 12:42:00,
2013-04-18 06:52:00,29.0,20.0,-100.00,East,92,4.0,5.0,67,-99.99,,,0.00,0.120000,,2013-04-18 12:52:00,
2013-04-18 07:02:00,29.0,20.0,-100.00,East,92,4.0,5.0,67,-99.99,,,0.00,0.120000,,2013-04-18 13:02:00,
2013-04-18 07:12:00,29.0,20.0,-100.00,East,92,4.0,5.0,67,-99.99,,,0.00,0.120000,,2013-04-18 13:12:00,
2013-04-18 07:42:00,28.0,21.0,-100.00,ESE,108,3.0,5.0,73,-99.99,,,0.00,17.080000,,2013-04-18 13:42:00,
2013-04-18 07:53:00,28.0,21.0,-100.00,ESE,108,3.0,5.0,73,-99.99,,,0.00,17.080000,,2013-04-18 13:53:00,
2013-04-18 08:02:00,28.0,21.0,-100.00,ESE,108,3.0,5.0,73,-99.99,,,0.00,17.080000,,2013-04-18 14:02:00,
2013-04-18 08:12:00,28.0,21.0,-100.00,ESE,108,3.0,5.0,73,-99.99,,,0.00,17.080000,,2013-04-18 14:12:00,
2013-04-18 08:42:00,32.0,22.0,-100.00,East,92,3.0,4.0,68,-99.99,,,0.00,56.250000,,2013-04-18 14:42:00,
2013-04-18 08:52:00,32.0,22.0,-100.00,East,92,3.0,4.0,68,-99.99,,,0.00,56.250000,,2013-04-18 14:52:00,
2013-04-18 09:02:00,32.0,22.0,-100.00,East,92,3.0,4.0,68,-99.99,,,0.00,56.250000,,2013-04-18 15:02:00,
2013-04-18 09:12:00,32.0,22.0,-100.00,East,92,3.0,4.0,68,-99.99,,,0.00,56.250000,,2013-04-18 15:12:00,
2013-04-18 09:42:00,39.0,25.0,-100.00,SE,129,6.0,9.0,55,-99.99,,,0.00,382.019989,,2013-04-18 15:42:00,
2013-04-18 09:53:00,39.0,25.0,-100.00,SE,129,6.0,9.0,55,-99.99,,,0.00,382.019989,,2013-04-18 15:53:00,
2013-04-18 10:03:00,39.0,25.0,-100.00,SE,129,6.0,9.0,55,-99.99,,,0.00,382.019989,,2013-04-18 16:03:00,
2013-04-18 10:13:00,39.0,25.0,-100.00,SE,129,6.0,9.0,55,-99.99,,,0.00,382.019989,,2013-04-18 16:13:00,
2013-04-18 10:42:00,45.0,23.0,-100.00,South,174,9.0,14.0,42,-99.99,,,0.00,510.790009,,2013-04-18 16:42:00,
2013-04-18 10:53:00,45.0,23.0,-100.00,South,174,9.0,14.0,42,-99.99,,,0.00,510.790009,,2013-04-18 16:53:00,
2013-04-18 11:02:00,45.0,23.0,-100.00,South,174,9.0,14.0,42,-99.99,,,0.00,510.790009,,2013-04-18 17:02:00,
2013-04-18 11:12:00,45.0,23.0,-100.00,South,174,9.0,14.0,42,-99.99,,,0.00,510.790009,,2013-04-18 17:12:00,
2013-04-18 11:42:00,46.0,23.0,-100.00,South,178,9.0,14.0,39,-99.99,,,0.00,652.109985,,2013-04-18 17:42:00,
2013-04-18 11:52:00,46.0,23.0,-100.00,South,178,9.0,14.0,39,-99.99,,,0.00,652.109985,,2013-04-18 17:52:00,
2013-04-18 12:02:00,46.0,23.0,-100.00,South,178,9.0,14.0,39,-99.99,,,0.00,652.109985,,2013-04-18 18:02:00,
2013-04-18 12:12:00,46.0,23.0,-100.00,South,178,9.0,14.0,39,-99.99,,,0.00,652.109985,,2013-04-18 18:12:00,
2013-04-18 12:42:00,47.0,23.0,-100.00,South,184,11.0,17.0,38,-99.99,,,0.00,501.839996,,2013-04-18 18:42:00,
2013-04-18 12:52:00,47.0,23.0,-100.00,South,184,11.0,17.0,38,-99.99,,,0.00,501.839996,,2013-04-18 18:52:00,
2013-04-18 13:02:00,47.0,23.0,-100.00,South,184,11.0,17.0,38,-99.99,,,0.00,501.839996,,2013-04-18 19:02:00,
2013-04-18 13:12:00,47.0,23.0,-100.00,South,184,11.0,17.0,38,-99.99,,,0.00,501.839996,,2013-04-18 19:12:00,
2013-04-18 13:42:00,49.0,25.0,-100.00,South,175,9.0,14.0,37,-99.99,,,0.00,661.059998,,2013-04-18 19:42:00,
2013-04-18 13:52:00,49.0,25.0,-100.00,South,175,9.0,14.0,37,-99.99,,,0.00,661.059998,,2013-04-18 19:52:00,
2013-04-18 14:02:00,49.0,25.0,-100.00,South,175,9.0,14.0,37,-99.99,,,0.00,661.059998,,2013-04-18 20:02:00,
2013-04-18 14:12:00,49.0,25.0,-100.00,South,175,9.0,14.0,37,-99.99,,,0.00,661.059998,,2013-04-18 20:12:00,
2013-04-18 14:42:00,51.0,26.0,-100.00,SSE,168,11.0,18.0,37,-99.99,,,0.00,637.700012,,2013-04-18 20:42:00,
2013-04-18 14:52:00,51.0,26.0,-100.00,SSE,168,11.0,18.0,37,-99.99,,,0.00,637.700012,,2013-04-18 20:52:00,
2013-04-18 15:02:00,51.0,26.0,-100.00,SSE,168,11.0,18.0,37,-99.99,,,0.00,637.700012,,2013-04-18 21:02:00,
2013-04-18 15:12:00,51.0,26.0,-100.00,SSE,168,11.0,18.0,37,-99.99,,,0.00,637.700012,,2013-04-18 21:12:00,
2013-04-18 16:42:00,51.0,26.0,-100.00,South,169,13.0,18.0,38,-99.99,,,0.00,240.809998,,2013-04-18 22:42:00,
2013-04-18 16:52:00,51.0,26.0,-100.00,South,169,13.0,18.0,38,-99.99,,,0.00,240.809998,,2013-04-18 22:52:00,
2013-04-18 17:03:00,51.0,26.0,-100.00,South,169,13.0,18.0,38,-99.99,,,0.00,240.809998,,2013-04-18 23:03:00,
2013-04-18 17:11:00,51.0,26.0,-100.00,South,169,13.0,18.0,38,-99.99,,,0.00,240.809998,,2013-04-18 23:11:00,
2013-04-18 17:42:00,50.0,27.0,-100.00,SSE,167,13.0,20.0,41,-99.99,,,0.00,128.309998,,2013-04-18 23:42:00,
2013-04-18 17:52:00,50.0,27.0,-100.00,SSE,167,13.0,20.0,41,-99.99,,,0.00,128.309998,,2013-04-18 23:52:00,
2013-04-18 18:01:00,50.0,27.0,-100.00,SSE,167,13.0,20.0,41,-99.99,,,0.00,128.309998,,2013-04-19 00:01:00,
2013-04-18 18:11:00,50.0,27.0,-100.00,SSE,167,13.0,20.0,41,-99.99,,,0.00,128.309998,,2013-04-19 00:11:00,
2013-04-18 19:42:00,52.0,28.0,-100.00,SW,221,8.0,15.0,39,-99.99,,,0.00,125.400002,,2013-04-19 01:42:00,
2013-04-18 19:52:00,52.0,28.0,-100.00,SW,221,8.0,15.0,39,-99.99,,,0.00,125.400002,,2013-04-19 01:52:00,
2013-04-18 20:01:00,52.0,28.0,-100.00,SW,221,8.0,15.0,39,-99.99,,,0.00,125.400002,,2013-04-19 02:01:00,
2013-04-18 20:11:00,52.0,28.0,-100.00,SW,221,8.0,15.0,39,-99.99,,,0.00,125.400002,,2013-04-19 02:11:00,
2013-04-18 20:42:00,47.0,31.0,-100.00,ESE,113,6.0,10.0,52,-99.99,,,0.00,4.180000,,2013-04-19 02:42:00,
2013-04-18 20:52:00,47.0,31.0,-100.00,ESE,113,6.0,10.0,52,-99.99,,,0.00,4.180000,,2013-04-19 02:52:00,
2013-04-18 21:01:00,47.0,31.0,-100.00,ESE,113,6.0,10.0,52,-99.99,,,0.00,4.180000,,2013-04-19 03:01:00,
2013-04-18 21:11:00,47.0,31.0,-100.00,ESE,113,6.0,10.0,52,-99.99,,,0.00,4.180000,,2013-04-19 03:11:00,
2013-04-18 21:43:00,47.0,30.0,-100.00,SE,140,3.0,6.0,50,-99.99,,,0.00,0.000000,,2013-04-19 03:43:00,
2013-04-18 21:53:00,47.0,30.0,-100.00,SE,140,3.0,6.0,50,-99.99,,,0.00,0.000000,,2013-04-19 03:53:00,
2013-04-18 22:03:00,47.0,30.0,-100.00,SE,140,3.0,6.0,50,-99.99,,,0.00,0.000000,,2013-04-19 04:03:00,
2013-04-18 22:12:00,47.0,30.0,-100.00,SE,140,3.0,6.0,50,-99.99,,,0.00,0.000000,,2013-04-19 04:12:00,
2013-04-18 22:43:00,46.0,30.0,-100.00,SSE,150,6.0,13.0,53,-99.99,,,0.00,0.000000,,2013-04-19 04:43:00,
2013-04-18 22:52:00,46.0,30.0,-100.00,SSE,150,6.0,13.0,53,-99.99,,,0.00,0.000000,,2013-04-19 04:52:00,
2013-04-18 23:03:00,46.0,30.0,-100.00,SSE,150,6.0,13.0,53,-99.99,,,0.00,0.000000,,2013-04-19 05:03:00,
2013-04-18 23:11:00,46.0,30.0,-100.00,SSE,150,6.0,13.0,53,-99.99,,,0.00,0.000000,,2013-04-19 05:11:00,
2013-04-18 23:42:00,44.0,30.0,-100.00,SSE,161,9.0,19.0,58,-99.99,,,0.00,0.000000,,2013-04-19 05:42:00,
2013-04-18 23:52:00,44.0,30.0,-100.00,SSE,161,9.0,19.0,58,-99.99,,,0.00,0.000000,,2013-04-19 05:52:00,